World > North America > United States > Ohio > Cleveland   City of Cleveland, OH

Cleveland, OH Hourly Weather Updates

Feedback E-mail the Weather

Quick WX

Cleveland, OH Weather Maps

°F °C°F °C
Cleveland Weather Map
UTC Time: 2/24/2024, 03:34
Your Time:

Cleveland, OH Regional Weather

Expires:202402240400;;593553
ASUS41 KCLE 240312
RWRCLE
OHIO REGIONAL WEATHER ROUNDUP
NATIONAL WEATHER SERVICE WILMINGTON, OH
1000 PM EST FRI FEB 23 2024

NOTE: "FAIR" INDICATES FEW OR NO CLOUDS BELOW 12,000 FEET WITH NO
SIGNIFICANT WEATHER AND/OR OBSTRUCTIONS TO VISIBILITY.


OHZ009>014-019>023-028>033-038-089-240400-
   NORTHEAST OHIO
  
CITY           SKY/WX    TMP DP  RH WIND       PRES   REMARKS
CLE-HOPKINS    CLOUDY    32  24  72 NE12      29.72R WCI  23          
CLE-LAKEFRONT  CLOUDY    35  25  66 N13       29.73S WCI  26          
CUY CO. ARPT   CLOUDY    30  25  80 NE7       29.72R WCI  23          
LORAIN-ELYRIA  CLOUDY    32  26  78 NE10      29.74R WCI  24          
ASHTABULA      CLOUDY    33  19  56 N9        29.69R WCI  25          
AKRON-CANTON   CLOUDY    34  27  75 N16       29.68R WCI  24          
WOOSTER        CLOUDY    35  24  64 N9        29.70R WCI  28          
MANSFIELD      CLOUDY    33  29  85 N7        29.69R WCI  27          
YOUNGSTOWN     CLOUDY    33  27  78 N9        29.67R WCI  25          
$$
 

SKY/WX - Weather  TMP - Temperature  DP - Dew Point  RH - Humidity
WIND - Wind Direction/Speed PRES - Barometric Pressure VSB - Visibility
WCI - Wind Chill Index E13G22 Wind - East Wind 13 mph/Gusts of 22 mph

Trending Headlines

Trending Entertainment Headlines

Cleveland Radar Loop

Use the map search tool if you want to place a location marker on the radar map...

Cleveland Quick Facts

National Two Day Weather Forecast


E-mail the Cleveland Weather Forecast

Voice your opinion or tell us about page issues...